Chillicothe, MO

5:16 PM CST on December 06, 2016 (GMT -0600)
Chillicothe

Weather History for KCDJ - June, 2013

Change the Weather History Date:

Sunday, June 9, 2013

  Actual Average (KIRK) Record (KIRK)
Temperature  
Mean Temperature 68 °F 70 °F  
Max Temperature 75 °F 80 °F 94 °F (1972)
Min Temperature 63 °F 59 °F 46 °F (1930)
Degree Days  
Heating Degree Days 0 1  
Month to date heating degree days 9  
Since 1 June heating degree days 9  
Since 1 July heating degree days 5849  
Cooling Degree Days 3 5  
Month to date cooling degree days 40  
Year to date cooling degree days 102  
Since 1 June cooling degree days 40  
Growing Degree Days 18 (Base 50)    
Moisture  
Dew Point 60 °F    
Average Humidity 79    
Maximum Humidity 93    
Minimum Humidity 61    
Precipitation  
Precipitation 0.60 in 0.18 in 3.89 in (1984)
Month to date precipitation 1.62  
Year to date precipitation 15.77  
Sea Level Pressure  
Sea Level Pressure 29.80 in    
Wind  
Wind Speed 5 mph (SSW)    
Max Wind Speed 13 mph    
Max Gust Speed -    
T = Trace of Precipitation, MM = Missing Value Source: NWS Daily Summary

Daily Weather History Graph

Daily Weather History Graph

Search for Another Location

Airport or City:

Trip Planner

Search our weather history database for the weather conditions in past years. The results will help you decide how hot, cold, wet, or windy it might be!

Date:

Astronomy

Jun. 09, 2013 Rise Set
Actual Time 5:45 AM CDT 8:41 PM CDT
Civil Twilight 5:13 AM CDT 9:14 PM CDT
Nautical Twilight 4:32 AM CDT 9:55 PM CDT
Astronomical Twilight 3:44 AM CDT 10:42 PM CDT
Moon 6:42 AM CDT (6/9) 9:29 PM CDT (6/9)
Length of Visible Light 16h 00m
Length of Day
14h 55m
New Moon, 1% of the Moon is Illuminated
Jun 9
New Moon
Jun 16
First Quarter
Jun 23
Full
Jun 29
Last Quarter
Jul 8
New

Hourly Weather History & Observations

Time (CDT) Temp. Dew Point Humidity Pressure Visibility Wind Dir Wind Speed Gust Speed Precip Events Conditions
12:52 AM 71.1 °F 57.0 °F 61% 29.84 in - Variable 4.6 mph - N/A   Unknown
1:52 AM 64.9 °F 62.1 °F 90% 29.83 in - Variable 4.6 mph - 0.10 in   Unknown
2:52 AM 64.0 °F 61.0 °F 90% 29.81 in - SSW 3.5 mph - 0.08 in   Unknown
3:52 AM 63.0 °F 61.0 °F 93% 29.82 in - SSW 4.6 mph - 0.36 in   Unknown
4:52 AM 63.0 °F 60.1 °F 90% 29.79 in - Calm Calm - 0.02 in   Unknown
5:52 AM 63.0 °F 60.1 °F 90% 29.81 in - South 3.5 mph - N/A   Unknown
6:52 AM 63.0 °F 60.1 °F 90% 29.82 in - South 5.8 mph - N/A   Unknown
7:52 AM 64.0 °F 61.0 °F 90% 29.81 in - South 5.8 mph - 0.04 in   Unknown
8:52 AM 66.0 °F 62.1 °F 87% 29.80 in - South 8.1 mph - N/A   Unknown
9:52 AM 66.0 °F 61.0 °F 84% 29.80 in - SSW 9.2 mph - N/A   Unknown
10:52 AM 68.0 °F 60.1 °F 76% 29.79 in - South 12.7 mph - N/A   Unknown
11:52 AM 69.1 °F 61.0 °F 75% 29.79 in - South 10.4 mph - N/A   Unknown
12:52 PM 73.9 °F 63.0 °F 68% 29.77 in - South 6.9 mph - N/A   Unknown
1:52 PM 73.0 °F 60.1 °F 64% 29.77 in - WSW 5.8 mph - N/A   Unknown
2:52 PM 71.1 °F 60.1 °F 68% 29.77 in - Variable 4.6 mph - N/A   Unknown
3:52 PM 73.9 °F 60.1 °F 62% 29.76 in - WSW 6.9 mph - N/A   Unknown
4:52 PM 70.0 °F 59.0 °F 68% 29.77 in - Variable 6.9 mph - N/A   Unknown
5:52 PM 66.9 °F 60.1 °F 79% 29.78 in - WNW 6.9 mph - N/A   Unknown
6:52 PM 66.9 °F 59.0 °F 76% 29.78 in - Variable 4.6 mph - N/A   Unknown
7:52 PM 66.9 °F 59.0 °F 76% 29.79 in - Calm Calm - N/A   Unknown
8:52 PM 66.0 °F 60.1 °F 81% 29.79 in - Calm Calm - N/A   Unknown
9:52 PM 66.0 °F 60.1 °F 81% 29.79 in - SW 3.5 mph - N/A   Unknown
10:52 PM 64.9 °F 60.1 °F 84% 29.80 in - Calm Calm - N/A   Unknown
11:52 PM 64.9 °F 60.1 °F 84% 29.80 in - Calm Calm - N/A   Unknown